[[{"header":{"parameterUnit":"m.s-1","parameterCategory":1,"la1":30.2991,"la2":30.254,"lo1":-89.0895,"lo2":-89.0444,"dy":0.0017,"dx":0.0017,"nx":28,"ny":28,"refTime":"2024-03-22T09:00:00:Z","depth":0,"parameterNumber":2,"parameterNumberName":"U-component_of_WINDS"},"data":[0,0,0,0,0,0,0,0,0,0,0,0,0,0,0,0,0,0,0,0,0,0,0,0,0,0,0,0,0,0,0,0,0,0,0,0,0,0,0,0,0,0,0,0,0,0,0,0,0,0,0,0,0,0,0,0,0,0,-2.8739,-2.8739,0,-2.8763,-2.8763,-2.8763,-2.8677,-2.8674,-2.8672,-2.8669,-2.8695,-2.8698,-2.8701,0,0,0,0,0,0,0,0,0,0,0,0,0,-2.8618,-2.8621,-2.8739,-2.8739,-2.8739,-2.8763,-2.8763,-2.8763,-2.8677,-2.8674,-2.8671,-2.8668,-2.8694,-2.8697,-2.8701,0,0,0,0,0,0,0,0,0,0,0,0,0,-2.8659,-2.8622,-2.8739,-2.8699,-2.8696,-2.8762,-2.8763,-2.8763,-2.8678,-2.8674,-2.867,-2.8667,-2.8692,-2.8697,-2.8701,-2.8808,0,0,-2.8716,-2.8718,0,0,0,0,0,0,0,0,-2.8657,-2.8664,-2.8705,-2.8702,-2.8698,-2.8713,-2.873,-2.8778,-2.8679,-2.8685,-2.8669,-2.8665,-2.8704,-2.8707,-2.872,-2.8809,-2.881,-2.8716,-2.8719,-2.8721,-2.8722,0,0,0,0,0,0,0,-2.8654,-2.8662,-2.8748,-2.8705,-2.8702,-2.868,-2.8682,-2.8738,-2.8716,-2.8684,-2.8678,-2.8682,-2.8701,-2.8716,-2.872,-2.881,-2.8716,-2.872,-2.8723,-2.8725,-2.8985,-2.8989,0,0,0,0,0,0,-2.8657,-2.8661,-2.8747,-2.8749,-2.8668,-2.8686,-2.8687,-2.8712,-2.8715,-2.8712,-2.8685,-2.8678,-2.871,-2.8715,-2.8721,-2.8844,-2.8721,-2.8725,-2.8728,-2.8981,-2.8986,-2.899,0,0,0,0,0,0,-2.8655,-2.8665,-2.8746,-2.8703,-2.8712,-2.8692,-2.872,-2.8715,-2.8729,-2.8716,-2.8711,-2.8704,-2.8707,-2.8714,-2.8786,-2.8844,-2.8727,-2.8731,-2.8976,-2.8982,-2.8988,-2.9092,0,0,0,0,0,0,-2.8651,-2.8665,-2.8705,-2.8705,-2.8714,-2.8812,-2.8724,-2.8718,-2.8737,-2.8728,-2.8732,-2.873,-2.8705,-2.878,-2.8791,-2.8848,-2.8735,-2.8971,-2.8979,-2.8986,-2.9084,-2.9101,-2.9116,0,0,0,0,0,-2.8647,-2.8734,-2.8708,-2.8719,-2.8764,-2.8815,-2.8821,-2.879,-2.8742,-2.8782,-2.8773,-2.8729,-2.8836,-2.8788,-2.88,-2.8859,-2.8967,-2.8977,-2.8986,-2.9076,-2.9098,-2.9116,0,0,0,0,0,0,-2.8743,-2.8733,-2.8704,-2.8793,-2.8806,-2.8801,-2.885,-2.8814,-2.8841,-2.8831,-2.8792,-2.8794,-2.8872,-2.8873,-2.882,-2.8961,-2.8893,-2.8905,-2.8958,-2.8978,-2.8994,-2.8992,-2.8739,0,0,0,0,0,-2.8774,-2.8816,-2.8806,-2.8885,-2.8893,-2.8871,-2.8892,-2.8867,-2.8879,-2.8884,-2.888,-2.8893,-2.8929,-2.8954,-2.8986,-2.9083,-2.9082,-2.913,-2.9146,-2.916,-2.9171,-2.922,-2.9241,-2.9021,-2.9021,-2.9021,0,0,-2.884,-2.884,-2.8869,-2.8905,-2.8911,-2.8955,-2.8876,-2.8927,-2.8959,-2.8891,-2.8958,-2.8956,-2.8968,-2.9053,-2.909,-2.9055,-2.9231,-2.9172,-2.9182,-2.9186,-2.9232,-2.9253,-2.9272,-2.9027,-2.9026,-2.9025,0,0,-2.8981,-2.8986,-2.9052,-2.906,-2.9071,-2.9055,-2.9071,-2.9071,-2.9067,-2.9134,-2.9084,-2.9122,-2.9185,-2.9195,-2.9208,-2.9352,-2.9313,-2.9364,-2.945,-2.9499,-2.9516,-2.9531,-2.9582,-2.9601,-2.9375,-2.9375,-2.9375,0,-2.9061,-2.9126,-2.9091,-2.9144,-2.9161,-2.9101,-2.9167,-2.9177,-2.9199,-2.9211,-2.9173,-2.925,-2.9254,-2.9339,-2.9374,-2.9387,-2.9404,-2.9363,-2.9517,-2.9531,-2.9545,-2.9593,-2.9612,-2.9381,-2.9381,-2.938,-2.938,0,-2.9223,-2.9268,-2.9321,-2.9342,-2.9364,-2.9424,-2.9398,-2.9425,-2.9398,-2.9387,-2.9455,-2.9457,-2.9488,-2.9507,-2.9482,-2.9589,-2.9567,-2.9523,-2.9454,-2.9573,-2.9617,-2.9635,-2.939,-2.9388,-2.9386,-2.9385,0,0,-2.9426,-2.9426,-2.9446,-2.9454,-2.9461,-2.9495,-2.9552,-2.9582,-2.9605,-2.9622,-2.9668,-2.9722,-2.9681,-2.9697,-2.9672,-2.9715,-2.9828,-2.9666,-2.9665,-2.9695,-2.9945,-2.9977,-2.9999,-2.9801,-2.9805,-2.9807,-2.9943,0,-2.9564,-2.9661,-2.963,-2.9728,-2.9768,-2.9712,-2.9761,-2.977,-2.9761,-2.9794,-2.9784,-2.9822,-2.9766,-2.9775,-2.9815,-2.9806,-2.9877,-2.9795,-2.9844,-2.9846,-2.9842,-3.0022,-3.0057,-3.0185,-2.996,-2.9963,-2.9966,0,-2.9739,-2.9761,-2.9862,-2.9861,-2.9877,-2.9922,-2.9946,-2.9979,-2.9988,-2.9978,-2.9995,-2.996,-3.0015,-2.9946,-3.0021,-2.9966,-2.9984,-2.9982,-2.9986,-2.9989,-2.9913,-3.0029,-3.0225,-3.0244,-2.9993,-2.999,-2.9988,0,-2.9875,-2.9931,-2.9998,-3.0007,-3.0007,-3.004,-3.0042,-3.0047,-3.0067,-3.0088,-3.01,-3.0128,-3.0144,-3.0166,-3.014,-3.0092,-3.0218,-3.0147,-3.0211,-3.0212,-3.024,-3.0238,-3.0441,-3.0253,-3.0252,-3.0252,-3.0252,0,-3.0033,-3.0097,-3.0059,-3.0101,-3.0171,-3.0135,-3.0205,-3.02,-3.0205,-3.0244,-3.0197,-3.0235,-3.0199,-3.0233,-3.0213,-3.0278,-3.0285,-3.0278,-3.0272,-3.0282,-3.0283,-3.0293,-3.0283,-3.0257,-3.0256,-3.0255,-3.0254,0,-3.0197,-3.0175,-3.0244,-3.0239,-3.0238,-3.029,-3.0285,-3.0323,-3.031,-3.036,-3.037,-3.0349,-3.0387,-3.0363,-3.0402,-3.0388,-3.0472,-3.0454,-3.0469,-3.0464,-3.0529,-3.0523,-3.0744,-3.0771,-3.0567,-3.0569,-3.057,0,-3.0299,-3.0346,-3.0345,-3.0368,-3.0372,-3.041,-3.0429,-3.0395,-3.0417,-3.0431,-3.0467,-3.0501,-3.0526,-3.0589,-3.0578,-3.0607,-3.0589,-3.0664,-3.0593,-3.0601,-3.0589,-3.0586,-3.059,-3.0679,-3.0681,-3.0683,-3.0685,0,-3.0481,-3.0467,-3.0497,-3.0522,-3.0546,-3.0565,-3.058,-3.0601,-3.0567,-3.0594,-3.0632,-3.0652,-3.0691,-3.0725,-3.0749,-3.075,-3.0712,-3.0707,-3.0723,-3.0734,-3.074,-3.0737,-3.0508,-3.0702,-3.0701,-3.0699,-3.0698,-3.0698,-3.0617,-3.0656,-3.0661,-3.0695,-3.0702,-3.0717,-3.0751,-3.0742,-3.0773,-3.0801,-3.078,-3.0825,-3.0831,-3.086,-3.0866,-3.0901,-3.087,-3.0894,-3.0899,-3.0906,-3.0914,-3.0735,-3.0905,-3.0904,-3.0904,-3.0903,-3.0903,0,-3.0795,-3.0795,-3.0827,-3.0849,-3.0875,-3.0836,-3.085,-3.0875,-3.0915,-3.0925,-3.095,-3.0993,-3.1025,-3.1016,-3.1045,-3.1074,-3.1057,-3.1083,-3.108,-3.1081,-3.094,-3.0923,-3.1096,-3.1096,-3.1096,-3.1096,-3.1096,-3.1096,-3.0892,-3.0955,-3.0942,-3.1009,-3.1008,-3.1051,-3.1062,-3.1076,-3.1083,-3.1133,-3.1159,-3.1152,-3.1154,-3.1182,-3.121,-3.1207,-3.1219,-3.1251,-3.1241,-3.111,-3.1091,-3.1073,-3.1056,-3.1254,-3.1254,-3.1378,-3.138,-3.138]},{"header":{"parameterUnit":"m.s-1","parameterCategory":1,"la1":30.2991,"la2":30.254,"lo1":-89.0895,"lo2":-89.0444,"dy":0.0017,"dx":0.0017,"nx":28,"ny":28,"refTime":"2024-03-22T09:00:00:Z","depth":0,"parameterNumber":3,"parameterNumberName":"V-component_of_WINDS"},"data":[0,0,0,0,0,0,0,0,0,0,0,0,0,0,0,0,0,0,0,0,0,0,0,0,0,0,0,0,0,0,0,0,0,0,0,0,0,0,0,0,0,0,0,0,0,0,0,0,0,0,0,0,0,0,0,0,0,0,1.6451,1.6451,0,1.6435,1.6434,1.6434,1.6365,1.6363,1.6362,1.636,1.6344,1.6345,1.6346,0,0,0,0,0,0,0,0,0,0,0,0,0,1.6424,1.6425,1.6451,1.6451,1.6451,1.6435,1.6434,1.6434,1.6365,1.6363,1.6361,1.6359,1.6344,1.6345,1.6346,0,0,0,0,0,0,0,0,0,0,0,0,0,1.6425,1.6425,1.6451,1.6414,1.6411,1.6435,1.6434,1.6434,1.6366,1.6363,1.6361,1.6359,1.6343,1.6345,1.6346,1.6405,0,0,1.6351,1.6352,0,0,0,0,0,0,0,0,1.6425,1.6426,1.642,1.6417,1.6413,1.6399,1.6419,1.6424,1.6366,1.6383,1.636,1.6357,1.6365,1.6364,1.6366,1.6404,1.6403,1.6352,1.6352,1.6353,1.6354,0,0,0,0,0,0,0,1.6425,1.6426,1.6445,1.642,1.6416,1.6399,1.6396,1.642,1.6387,1.6381,1.6376,1.6375,1.6362,1.6365,1.6366,1.6403,1.6351,1.6353,1.6354,1.6354,1.6488,1.6491,0,0,0,0,0,0,1.643,1.6426,1.6445,1.6444,1.6413,1.6402,1.6399,1.6406,1.6387,1.6382,1.6377,1.6372,1.6363,1.6364,1.6365,1.6432,1.6353,1.6355,1.6356,1.6486,1.6489,1.6492,0,0,0,0,0,0,1.6429,1.6432,1.6446,1.6434,1.6434,1.6405,1.6414,1.6407,1.641,1.6384,1.6378,1.6386,1.6362,1.6362,1.6395,1.6431,1.6355,1.6357,1.6483,1.6487,1.649,1.6568,0,0,0,0,0,0,1.6429,1.6432,1.6454,1.6435,1.6435,1.6477,1.6416,1.6409,1.6413,1.6406,1.6391,1.6386,1.636,1.6393,1.6397,1.6432,1.6358,1.6479,1.6484,1.6489,1.6562,1.6574,1.6584,0,0,0,0,0,1.6428,1.6476,1.6455,1.6458,1.6462,1.6479,1.6479,1.6448,1.6416,1.6438,1.6421,1.6386,1.6426,1.6397,1.6401,1.6436,1.6477,1.6483,1.6489,1.6557,1.6571,1.6584,0,0,0,0,0,0,1.65,1.6473,1.645,1.6493,1.6489,1.6467,1.6493,1.6464,1.6469,1.6462,1.6424,1.6421,1.646,1.6451,1.6419,1.6492,1.6446,1.6453,1.6497,1.651,1.6521,1.6523,1.6359,0,0,0,0,0,1.6521,1.6537,1.6513,1.6553,1.6552,1.6524,1.653,1.6506,1.6501,1.6499,1.6484,1.648,1.6492,1.65,1.6509,1.656,1.6556,1.6586,1.6597,1.6607,1.6613,1.664,1.6654,1.6511,1.6511,1.6511,0,0,1.6565,1.6552,1.6564,1.6568,1.6561,1.658,1.6523,1.6544,1.6557,1.6502,1.6532,1.6522,1.6515,1.6557,1.6575,1.6551,1.6652,1.6614,1.6622,1.6623,1.6648,1.6661,1.6674,1.6515,1.6514,1.6513,0,0,1.6653,1.6645,1.6678,1.6673,1.6665,1.6646,1.6654,1.6637,1.6628,1.6657,1.6617,1.6632,1.6653,1.665,1.6651,1.6739,1.6708,1.6743,1.6801,1.6828,1.6839,1.6849,1.6882,1.6894,1.675,1.675,1.675,0,1.6708,1.6734,1.6699,1.6723,1.6726,1.6677,1.6711,1.6708,1.6703,1.6707,1.668,1.6705,1.6697,1.6739,1.676,1.6763,1.6771,1.6745,1.684,1.685,1.6859,1.6889,1.6901,1.6754,1.6754,1.6753,1.6753,0,1.6802,1.6821,1.6849,1.6846,1.6852,1.6881,1.6851,1.6861,1.6837,1.6821,1.6853,1.6841,1.6847,1.6855,1.6832,1.6894,1.6879,1.6847,1.68,1.6877,1.6905,1.6917,1.6761,1.6759,1.6758,1.6757,0,0,1.6936,1.6914,1.6925,1.6923,1.6911,1.6924,1.6951,1.6957,1.6968,1.6966,1.6988,1.7007,1.6978,1.6979,1.6955,1.6979,1.7051,1.6943,1.6943,1.6965,1.7119,1.7145,1.7159,1.7029,1.7031,1.7033,1.712,0,1.7021,1.7066,1.7036,1.7086,1.7103,1.7057,1.708,1.7076,1.7061,1.7074,1.7058,1.7072,1.7031,1.7032,1.7053,1.7037,1.7081,1.7031,1.7051,1.7052,1.7055,1.7173,1.72,1.7283,1.7131,1.7133,1.7134,0,1.7127,1.713,1.7182,1.7167,1.7173,1.7195,1.7199,1.7211,1.7205,1.7193,1.7195,1.7165,1.7191,1.7144,1.718,1.7146,1.7153,1.7146,1.7149,1.715,1.7099,1.7179,1.7308,1.7321,1.7151,1.715,1.7148,0,1.7221,1.7238,1.7272,1.7272,1.7254,1.7271,1.7265,1.7256,1.7262,1.7265,1.7269,1.7275,1.7279,1.7285,1.7258,1.7226,1.7298,1.7249,1.729,1.7291,1.7308,1.7307,1.7441,1.731,1.731,1.731,1.731,0,1.732,1.7354,1.7314,1.7335,1.7371,1.7337,1.7374,1.7363,1.7356,1.7374,1.7334,1.7352,1.7314,1.7329,1.7308,1.7342,1.7343,1.7335,1.7329,1.7339,1.734,1.7343,1.7337,1.7313,1.7312,1.7312,1.7311,0,1.7431,1.7406,1.7439,1.742,1.7416,1.7445,1.7429,1.7447,1.743,1.7454,1.7457,1.7431,1.7446,1.7419,1.743,1.7416,1.7464,1.7448,1.7466,1.7462,1.7505,1.7502,1.7646,1.7664,1.7521,1.7522,1.7524,0,1.7496,1.7521,1.7505,1.7515,1.7511,1.7526,1.7532,1.7499,1.7507,1.7502,1.7522,1.7533,1.7541,1.7567,1.7549,1.7558,1.7543,1.7593,1.7544,1.7554,1.7545,1.7545,1.7548,1.7604,1.7605,1.7607,1.7608,0,1.7616,1.7602,1.7612,1.7618,1.7627,1.763,1.763,1.764,1.7605,1.7616,1.7631,1.7637,1.7649,1.7661,1.7666,1.7659,1.7629,1.7623,1.7634,1.7645,1.7655,1.7651,1.7495,1.762,1.7619,1.7618,1.7618,1.7617,1.7707,1.7727,1.772,1.7732,1.7729,1.7731,1.7748,1.7733,1.7744,1.7752,1.7731,1.7751,1.7745,1.7748,1.7745,1.776,1.7738,1.7753,1.7757,1.7761,1.7769,1.7651,1.7761,1.7761,1.776,1.776,1.776,0,1.7825,1.7818,1.783,1.7832,1.7842,1.7812,1.7811,1.7822,1.784,1.7836,1.7845,1.7862,1.7874,1.7857,1.7866,1.7882,1.7868,1.7886,1.7885,1.7884,1.7787,1.7778,1.7897,1.7897,1.7897,1.7897,1.7897,1.7897,1.7888,1.7922,1.7907,1.7939,1.7931,1.795,1.7953,1.7954,1.7951,1.7973,1.7983,1.7971,1.7963,1.7971,1.7981,1.7976,1.7981,1.8004,1.7994,1.7904,1.7891,1.7878,1.7869,1.8006,1.8006,1.809,1.8091,1.8092]}]]